sat.trackr.live / text

‹ back to catalog

STARLINK-4369

NORAD 53191 · 2022-084C

PAYLOAD ACTIVE UNKNOWN

§ Identity

Operator
Country
US
Launch date
2022-07-22
Launch site
AFWTR
Launch vehicle
Mass (kg)
RCS (m²)

Purposes: comms

External: N2YO · Heavens-Above · Gunter

§ Orbital elements

Epoch: 2026-09-20T03:19:36.915744Z

Period
93.69 min
Inclination
97.4750°
Eccentricity
0.0000689
Mean motion
15.36966848 rev/d
Perigee alt
454.6 km
Apogee alt
455.6 km
Semi-major
6,833.2 km
B*
1.1387e-5
RAAN
327.2275°
Arg perigee
130.0086°
Mean anomaly
230.1219°
Rev number
22,895

§ Raw data

STARLINK-43691 53191U 22084C   26263.13862171  .00000329  00000+0  11387-4 0  99902 53191  97.4750 327.2275 0000689 130.0086 230.1219 15.36966848228952

JSON: /api/v1/satellites/53191 · /tle

For live sub-satellite position, see the globe view (requires WebGL).

§ Visibility from observer

Set your observer location to see the next 7 days of passes ≥ 10°. The values pass through the URL so the page stays shareable.

No JS? Fill the form by hand. The geolocation button needs JavaScript.